Weather in Koper

Slovenia     45°32′52″N   13°43′51″E
temp.,
°C
wind,
m/s
gust,
m/s
humid.,
%
clouds,
%
prec.,
mm/h
press.,
hPa
HPBL,
m
21 april, wed
wed2123:00+8se218296 0.0 101626
02:00+7e118756 0.0 101821
05:00+7ese22885 0.0 101721
08:00+10se127333 0.0 1018121
11:00+15sw345248 0.0 10181391
14:00+15ssw456445 1.4 10181322
17:00+14ssw45615 1.1 10181047
20:00+10se228792 1.2 101834
22 april, thu
thu2223:00+8ese239564 0.0 102066
02:00+8ese2393100 0.0 101952
05:00+8ese239480 0.0 101970
08:00+11se278397 0.0 1019437
11:00+14sse347031 0.8 1019944
14:00+14sse457577 2.8 1019836
17:00+14s35745 1.6 1018857
20:00+10sse22922 1.9 101926
23 april, fri
fri2323:00+8ese21946 0.0 102121
02:00+8ene119366 0.1 102116
05:00+9ne239098 0.1 1021137
08:00+9ene24797 0.1 1022227
11:00+14ne23515 0.0 1022933
14:00+17n334311 0.0 10211732
17:00+17n344540 0.0 10201137
20:00+10ssw11800 0.0 102223
24 april, sat
sat2423:00+9ene11791 0.0 102317
02:00+8ene22763 0.0 102341
05:00+7e33745 0.0 102254
08:00+11ene23645 0.0 1023152
11:00+17ne23443 0.0 10221004
14:00+19nnw32390 0.0 10211762
17:00+17w33491 0.0 1020617
20:00+11ssw11735 0.0 102011
25 april, sun
sun2523:00+10e117532 0.0 102114
02:00+9ene227811 0.0 102121
05:00+8ene2274100 0.0 102138
08:00+11ene2467100 0.0 1021153
11:00+17ne234766 0.0 1021931
14:00+19n224240 0.0 10201759
17:00+17wnw325171 0.0 1020789
20:00+11nnw11744 0.0 102022